Flag for China Weather past 2 weeks in Chongqing, Chongqing Municipality, China

52 °F

Light rain. More clouds than sun.

Feels Like: 51 °F
Forecast: 53 / 59 °F
Wind: 3 mph from Southeast

Location: Chongqing Airport

Current Time: Nov 25, 2015 at 1:04:56 PM

Latest Report: Nov 25, 2015 at 12:00 PM

Visibility: N/A

Pressure: 30.39 "Hg

Humidity: 88%

Dew point: 48 °F

Location of ChongqingLocation

Historic Weather in Chongqing — Graph


Chongqing temperature yesterday

Maximum temperature yesterday: 66 °F (at 12:00 AM)
Minimum temperature yesterday: 52 °F (at 6:00 PM)
Average temperature yesterday: 59 °F

Past Weeks' High & Low Weather Summary

High73 °F (Nov 23, 3:00 PM)94% (Nov 15, 5:00 AM)30.39 "Hg (Nov 15, 5:00 AM)
Low50 °F (Nov 25, 4:00 AM)52% (Nov 13, 4:00 PM)29.77 "Hg (Nov 14, 4:00 PM)
Average61 °F77%30.04 "Hg
* Reported Nov 10 11:00 AM — Nov 25 11:00 AM, Chongqing, Weather by CustomWeather, © 2015

Note: Actual official high and low records may vary slightly from our data, if they occured in-between our weather recording intervals... More about our weather records


Chongqing weather history for previous 24 hours

Time TempWeatherWind HumidityBarometerVisibility
11:00 AM
Wed, Nov 25
52 °FScattered clouds.3 mph88%30.39 "HgN/A
10:00 AM52 °FScattered clouds.3 mph88%30.39 "HgN/A
9:00 AM52 °FScattered clouds.1 mph88%30.39 "HgN/A
8:00 AM50 °FMore clouds than sun.3 mph88%30.36 "HgN/A
7:00 AM50 °FMostly cloudy.3 mph88%30.36 "HgN/A
6:00 AM50 °FLight rain. Mostly cloudy.1 mph88%30.36 "HgN/A
5:00 AM50 °FMostly cloudy.3 mph88%30.36 "HgN/A
4:00 AM50 °FLight rain. Mostly cloudy.1 mph88%30.33 "HgN/A
3:00 AM52 °FLight rain. Mostly cloudy.8 mph82%30.33 "HgN/A
2:00 AM54 °FMostly cloudy.6 mph72%30.33 "HgN/A
1:00 AM54 °FMostly cloudy.6 mph72%30.33 "HgN/A
12:00 AM54 °FMostly cloudy.8 mph72%30.33 "HgN/A
11:00 PM
Tue, Nov 24
54 °FMostly cloudy.8 mph77%30.33 "HgN/A
10:00 PM54 °FMostly cloudy.6 mph77%30.30 "HgN/A
9:00 PM52 °FMostly cloudy.8 mph82%30.30 "HgN/A
8:00 PM52 °FMostly cloudy.8 mph82%30.27 "HgN/A
7:00 PM52 °FMostly cloudy.13 mph88%30.21 "HgN/A
6:00 PM52 °FMostly cloudy.13 mph88%30.18 "HgN/A
5:00 PM54 °FMore clouds than sun.13 mph82%30.15 "HgN/A
4:00 PM54 °FMore clouds than sun.15 mph82%30.12 "HgN/A
3:00 PM55 °FMore clouds than sun.13 mph88%30.12 "HgN/A
2:00 PM57 °FLight rain. Fog.8 mph88%30.09 "Hg2 mi
1:00 PM57 °FLight rain. Fog.13 mph88%30.12 "Hg2 mi
Weather by CustomWeather, © 2015

See weather overviewHow to use our weather pages